Tracking 18843 objects as of 20-November-2017
HD Live streaming from Space Station
objects crossing your sky now

FENGYUN 1C DEB

Track FENGYUN 1C DEB now!
10-day predictions


NORAD ID: 29915
Int'l Code: 1999-025HM
Perigee: 577.9 km
Apogee: 664.5 km
Inclination: 99.1 °
Period: 97.0 minutes
Semi major axis: 6992 km
RCS: 0.025 m2 (small)
Launch date: May 10, 1999
Source: People's Republic of China (PRC)
Launch site: Taiyaun Space Center, China (TSC)

Note: This is SATELLITE DEBRIS
aabbcc
Your satellite tracking list
Your tracking list is empty




NASA's NSSDC Master Catalog

Two Line Element Set (TLE):
1 29915U 99025HM  17323.58097537  .00005745  00000-0  66106-3 0  9994
2 29915  99.0588 334.6501 0061952 263.8292  95.5858 14.84855255576054
Source of the keplerian elements: AFSPC